This demonstration page uses our WeatherBlox Daily Observations layout. Learn more.

Hourly Observations for December 1, 2018

Temp ( °F °C ) Dew Point ( °F °C ) Humidity (%) Winds ( mph kmh ) Pressure ( in mb ) Visibility ( mi km ) Precip ( " mm )
12:15 am 00:15 Clear 34 1 34 1 100 100 Calm 30.18 1022 10 16.09344 0 0
12:35 am 00:35 Clear 32 0 32 0 100 100 Calm 30.18 1022 7 11.265408 0 0
12:55 am 00:55 Clear 32 0 32 0 100 100 Calm 30.18 1022 7 11.265408 0 0
1:15 am 01:15 Clear 32 0 32 0 100 100 Calm 30.18 1022 7 11.265408 0 0
1:35 am 01:35 Mostly Cloudy 32 0 32 0 100 100 Calm 30.18 1022 7 11.265408 0 0
1:55 am 01:55 Cloudy 32 0 32 0 100 100 W 5 7 30.18 1022 7 11.265408 0 0
2:15 am 02:15 Cloudy 32 0 32 0 100 100 NW 5 7 30.21 1023 7 11.265408 0 0
2:35 am 02:35 Cloudy 34 1 34 1 100 100 Calm 30.21 1023 7 11.265408 0 0
2:55 am 02:55 Cloudy 34 1 34 1 100 100 NW 3 6 30.21 1023 7 11.265408 0 0
3:15 am 03:15 Cloudy 34 1 34 1 100 100 Calm 30.21 1023 7 11.265408 0 0
3:35 am 03:35 Cloudy 36 2 36 2 100 100 Calm 30.21 1023 7 11.265408 0 0
3:55 am 03:55 Cloudy 36 2 36 2 100 100 Calm 30.21 1023 7 11.265408 0 0
4:15 am 04:15 Cloudy 36 2 36 2 100 100 Calm 30.21 1023 7 11.265408 0 0
4:35 am 04:35 Cloudy 36 2 36 2 100 100 Calm 30.21 1023 7 11.265408 0 0
4:55 am 04:55 Cloudy 37 3 36 2 93 93 Calm 30.21 1023 7 11.265408 0 0
5:15 am 05:15 Partly Cloudy with Mist and Fog 34 1 34 1 100 100 Calm 30.21 1023 5 8.04672 0 0
5:35 am 05:35 Mostly Cloudy 36 2 36 2 100 100 Calm 30.21 1023 7 11.265408 0 0
5:55 am 05:55 Cloudy 36 2 36 2 100 100 Calm 30.21 1023 7 11.265408 0 0
6:15 am 06:15 Cloudy 36 2 36 2 100 100 Calm 30.21 1023 7 11.265408 0 0
6:35 am 06:35 Cloudy 36 2 36 2 100 100 Calm 30.21 1023 7 11.265408 0 0
6:55 am 06:55 Cloudy 36 2 36 2 100 100 Calm 30.21 1023 7 11.265408 0 0
7:15 am 07:15 Cloudy 36 2 36 2 100 100 undefined N/A 30.21 1023 7 11.265408 0 0
7:35 am 07:35 Cloudy 36 2 36 2 100 100 Calm 30.21 1023 7 11.265408 0 0
7:55 am 07:55 Cloudy 36 2 36 2 100 100 Calm 30.24 1024 7 11.265408 0 0
8:15 am 08:15 Cloudy 37 3 36 2 93 93 Calm 30.24 1024 7 11.265408 0 0
8:35 am 08:35 Cloudy 37 3 36 2 93 93 Calm 30.21 1023 7 11.265408 0 0
8:55 am 08:55 Cloudy 37 3 36 2 93 93 Calm 30.24 1024 7 11.265408 0 0
9:15 am 09:15 Cloudy 37 3 37 3 100 100 Calm 30.24 1024 7 11.265408 0 0
9:35 am 09:35 Cloudy 39 4 36 2 87 87 Calm 30.24 1024 7 11.265408 0 0
9:55 am 09:55 Cloudy 41 5 37 3 87 87 Calm 30.24 1024 7 11.265408 0 0
10:15 am 10:15 Cloudy 41 5 37 3 87 87 Calm 30.24 1024 7 11.265408 0 0
10:35 am 10:35 Cloudy 41 5 37 3 87 87 ENE 5 7 30.24 1024 7 11.265408 0 0
10:55 am 10:55 Cloudy with Mist and Fog 41 5 37 3 87 87 Calm 30.24 1024 5 8.04672 0 0
11:15 am 11:15 Cloudy with Light Rain 41 5 37 3 87 87 ENE 5 7 30.24 1024 2.5 4.02336 0 0
11:35 am 11:35 Cloudy with Light Rain 39 4 39 4 100 100 ENE 6 9 30.21 1023 2 3.218688 0 0
11:55 am 11:55 Cloudy with Rain 37 3 37 3 100 100 ENE 3 6 30.21 1023 1.25 2.01168 0.03 0.762
12:15 pm 12:15 Cloudy with Light Rain 37 3 37 3 100 100 E 5 7 30.18 1022 1 1.609344 0.04 1.016
12:35 pm 12:35 Cloudy with Rain 37 3 37 3 100 100 E 6 9 30.18 1022 1 1.609344 0.07 1.778
12:55 pm 12:55 Cloudy with Rain 37 3 37 3 100 100 ENE 3 6 30.18 1022 1.25 2.01168 0.09 2.286
1:15 pm 13:15 Cloudy with Rain 37 3 37 3 100 100 E 5 7 30.18 1022 1.5 2.414016 0.01 0.254
1:35 pm 13:35 Cloudy with Light Drizzle 37 3 37 3 100 100 E 5 7 30.18 1022 2 3.218688 0.02 0.508
1:55 pm 13:55 Cloudy with Mist and Fog 37 3 37 3 100 100 Calm 30.15 1021 1.75 2.816352 0.02 0.508
2:15 pm 14:15 Cloudy with Mist and Fog 37 3 37 3 100 100 E 3 6 30.15 1021 1.5 2.414016 0 0
2:35 pm 14:35 Cloudy with Mist and Fog 37 3 37 3 100 100 ESE 3 6 30.15 1021 1.25 2.01168 0 0
2:55 pm 14:55 Cloudy with Mist and Fog 37 3 37 3 100 100 SE 3 6 30.15 1021 1.25 2.01168 0 0
3:15 pm 15:15 Cloudy with Mist and Fog 37 3 37 3 100 100 Calm 30.15 1021 1 1.609344 0 0
3:35 pm 15:35 Cloudy with Mist and Fog 37 3 37 3 100 100 SE 3 6 30.15 1021 1 1.609344 0 0
3:55 pm 15:55 Cloudy with Mist and Fog 37 3 37 3 100 100 ESE 5 7 30.12 1020 0.75 1.207008 0 0
4:15 pm 16:15 Cloudy with Light Drizzle 37 3 37 3 100 100 ESE 3 6 30.12 1020 1 1.609344 0.01 0.254
4:35 pm 16:35 Cloudy with Mist and Fog 37 3 37 3 100 100 ESE 5 7 30.12 1020 1 1.609344 0.01 0.254
4:55 pm 16:55 Cloudy with Light Rain 37 3 37 3 100 100 E 3 6 30.12 1020 1.25 2.01168 0.01 0.254
5:15 pm 17:15 Cloudy with Mist and Fog 37 3 37 3 100 100 Calm 30.12 1020 1.25 2.01168 0.01 0.254
5:35 pm 17:35 Cloudy with Light Drizzle 37 3 37 3 100 100 E 3 6 30.12 1020 1.5 2.414016 0.01 0.254
5:55 pm 17:55 Cloudy with Mist and Fog 37 3 37 3 100 100 E 3 6 30.12 1020 1.5 2.414016 0.01 0.254
6:15 pm 18:15 Cloudy with Light Rain 37 3 37 3 100 100 E 5 7 30.09 1019 1.5 2.414016 0 0
6:35 pm 18:35 Cloudy with Light Rain 37 3 37 3 100 100 ESE 3 6 30.09 1019 1.75 2.816352 0.01 0.254
6:55 pm 18:55 Cloudy with Mist and Fog 37 3 37 3 100 100 ESE 5 7 30.09 1019 1.5 2.414016 0.01 0.254
7:15 pm 19:15 Cloudy with Mist and Fog 37 3 37 3 100 100 Calm 30.09 1019 1.25 2.01168 0 0
7:35 pm 19:35 Cloudy with Mist and Fog 37 3 37 3 100 100 Calm 30.09 1019 1.25 2.01168 0 0
7:55 pm 19:55 Cloudy with Mist and Fog 37 3 37 3 100 100 Calm 30.09 1019 1.25 2.01168 0.01 0.254
8:15 pm 20:15 Cloudy with Mist and Fog 37 3 37 3 100 100 SE 5 7 30.09 1019 1 1.609344 0 0
8:35 pm 20:35 Cloudy with Mist and Fog 37 3 37 3 100 100 E 3 6 30.06 1018 1 1.609344 0 0
8:55 pm 20:55 Cloudy with Mist and Fog 37 3 37 3 100 100 Calm 30.06 1018 1 1.609344 0 0
9:15 pm 21:15 Cloudy with Mist and Fog 37 3 37 3 100 100 Calm 30.06 1018 0.75 1.207008 0 0
9:35 pm 21:35 Cloudy with Light Rain 37 3 37 3 100 100 Calm 30.03 1017 0.75 1.207008 0 0
9:55 pm 21:55 Cloudy with Mist and Fog 37 3 37 3 100 100 E 3 6 30.03 1017 1 1.609344 0.01 0.254
10:15 pm 22:15 Cloudy with Mist and Fog 37 3 37 3 100 100 E 3 6 30 1016 0.75 1.207008 0 0
10:35 pm 22:35 Cloudy with Light Rain 37 3 37 3 100 100 Calm 30 1016 0.75 1.207008 0.01 0.254
10:55 pm 22:55 Cloudy with Drizzle 37 3 37 3 100 100 Calm 29.97 1015 0.75 1.207008 0.01 0.254
11:15 pm 23:15 Cloudy with Rain 37 3 37 3 100 100 Calm 29.97 1015 0.75 1.207008 0.01 0.254
11:35 pm 23:35 Cloudy with Light Rain 37 3 37 3 100 100 Calm 29.97 1015 1.25 2.01168 0.01 0.254
11:55 pm 23:55 Cloudy with Drizzle 37 3 37 3 100 100 NW 3 6 29.97 1015 1 1.609344 0.02 0.508

Powered by AerisWeather